UB2FAY-13 Weather Reports


Display with metric or nautical units.
time (UTC)temp
F
wind
direction
speed
MPH
gust
MPH
rain 1hr
in
rain 24hr
in
rain mn
in
humidity
%
barometer
mb
20260503020654 0 180 0.0 0.0 0.00 0.00 0.00 1014.4
20260503015654 0 180 0.0 0.0 0.00 0.00 0.00 1014.6
20260503014654 0 180 0.0 0.0 0.00 0.00 0.00 1014.6
20260503011654 0 180 0.0 0.0 0.00 0.00 0.00 1014.7
20260503005654 0 180 0.0 0.0 0.00 0.00 0.00 1014.8
20260503004654 0 180 0.0 0.0 0.00 0.00 0.00 1014.8
20260503003726 0 180 0.0 0.0 0.00 0.00 0.00 1014.9
20260503003654 0 180 0.0 0.0 0.00 0.00 0.00 1014.9
20260503002654 0 180 0.0 0.0 0.00 0.00 0.00 1014.9
20260503001728 0 180 0.0 0.0 0.00 0.00 0.00 1014.9
20260503001654 0 180 0.0 0.0 0.00 0.00 0.00 1014.9
20260503000654 0 180 0.0 0.0 0.00 0.00 0.00 1014.9
20260502235654 0 180 0.0 0.0 0.00 0.00 0.00 1014.9
20260502230654 0 180 0.0 0.0 0.00 0.00 0.00 1015.3
20260502120655 69 225 0.0 0.0 0.00 0.00 0.00 37 1021.1
20260502115655 68 247 0.0 0.0 0.00 0.00 0.00 38 1021.1
20260502114655 68 225 0.0 0.0 0.00 0.00 0.00 38 1021.4
20260502112655 67 225 0.0 0.0 0.00 0.00 0.00 39 1021.6
20260502104655 65 247 0.0 0.0 0.00 0.00 0.00 42 1022.1
20260502103655 65 247 0.0 0.0 0.00 0.00 0.00 43 1022.0
20260502100655 64 225 0.0 0.0 0.00 0.00 0.00 47 1022.1
20260502090656 61 247 0.0 0.0 0.00 0.00 0.00 51 1022.6
20260502070655 58 202 0.0 0.0 0.00 0.00 0.00 56 1022.7
20260502065655 58 247 0.0 0.0 0.00 0.00 0.00 56 1022.8
20260502064655 58 225 0.0 0.0 0.00 0.00 0.00 56 1022.8
20260502063655 58 247 0.0 0.0 0.00 0.00 0.00 57 1022.7
20260502062655 57 225 0.0 0.0 0.00 0.00 0.00 56 1022.8
20260502061700 57 247 0.0 0.0 0.00 0.00 0.00 56 1022.8
20260502060655 58 225 0.0 0.0 0.00 0.00 0.00 55 1022.7
20260502055655 59 202 0.0 0.0 0.00 0.00 0.00 53 1022.7
20260502054655 60 247 0.0 0.0 0.00 0.00 0.00 53 1022.7
20260502053658 61 247 0.0 0.0 0.00 0.00 0.00 52 1022.8
20260502052658 62 225 0.0 0.0 0.00 0.00 0.00 52 1022.6
20260502051655 61 202 0.0 0.0 0.00 0.00 0.00 53 1022.8
20260502050655 61 270 0.0 0.0 0.00 0.00 0.00 53 1022.6
20260502045658 61 225 0.0 0.0 0.00 0.00 0.00 54 1022.5
20260502044655 60 225 0.0 0.0 0.00 0.00 0.00 55 1022.5
20260502043655 60 247 0.0 0.0 0.00 0.00 0.00 57 1022.6
20260502042655 59 202 0.0 0.0 0.00 0.00 0.00 59 1022.5
20260502041655 58 225 0.0 0.0 0.00 0.00 0.00 60 1022.4
20260502040655 57 225 0.0 0.0 0.00 0.00 0.00 62 1022.5
20260502035655 56 225 0.0 0.0 0.00 0.00 0.00 64 1022.4
20260502034655 55 225 0.0 0.0 0.00 0.00 0.00 66 1022.3
20260502033655 54 247 0.0 0.0 0.00 0.00 0.00 67 1022.5
20260502032657 53 225 0.0 0.0 0.00 0.00 0.00 68 1022.5
20260502031655 52 225 0.0 0.0 0.00 0.00 0.00 70 1022.5
20260502030655 51 247 0.0 0.0 0.00 0.00 0.00 70 1022.6
20260502025733 51 225 0.0 0.0 0.00 0.00 0.00 70 1022.4
20260502025655 51 225 0.0 0.0 0.00 0.00 0.00 70 1022.4
20260502024822 51 225 0.0 0.0 0.00 0.00 0.00 69 1022.6
20260502024655 51 225 0.0 0.0 0.00 0.00 0.00 69 1022.6
20260502023655 51 292 0.0 0.0 0.00 0.00 0.00 69 1022.6
20260502022655 51 225 0.0 0.0 0.00 0.00 0.00 68 1022.7
20260502021655 51 247 0.0 0.0 0.00 0.00 0.00 67 1022.6